Time,TemperatureF,DewpointF,PressureIn,WindDirection,WindDirectionDegrees,WindSpeedMPH,WindSpeedGustMPH,Humidity,HourlyPrecipIn,Conditions,Clouds,dailyrainin,SoftwareType,DateUTC
2013-06-21 00:01:00,73.5,69.1,30.05,ESE,111,0.0,0.0,86,0.00,,SKC,0.00,VWS V14.01,2013-06-21 05:01:00,
2013-06-21 00:06:00,73.4,69.0,30.05,ESE,111,0.0,0.0,86,0.00,,SKC,0.00,VWS V14.01,2013-06-21 05:06:00,
2013-06-21 00:11:00,73.3,68.5,30.06,ESE,111,0.0,0.0,85,0.00,,SKC,0.00,VWS V14.01,2013-06-21 05:11:00,
2013-06-21 00:16:00,73.3,68.5,30.06,ESE,111,0.0,0.0,85,0.00,,SKC,0.00,VWS V14.01,2013-06-21 05:16:00,
2013-06-21 00:21:00,73.4,68.6,30.06,ESE,111,0.0,0.0,85,0.00,,SKC,0.00,VWS V14.01,2013-06-21 05:21:00,
2013-06-21 00:26:00,73.3,68.5,30.06,ESE,111,0.0,0.0,85,0.00,,SKC,0.00,VWS V14.01,2013-06-21 05:26:00,
2013-06-21 00:31:00,73.2,68.4,30.06,ESE,111,0.0,0.0,85,0.00,,SKC,0.00,VWS V14.01,2013-06-21 05:31:00,
2013-06-21 00:36:00,73.1,68.3,30.06,ESE,111,0.0,0.0,85,0.00,,SKC,0.00,VWS V14.01,2013-06-21 05:36:00,
2013-06-21 00:41:00,73.1,68.3,30.06,ESE,111,0.0,0.0,85,0.00,,SKC,0.00,VWS V14.01,2013-06-21 05:41:00,
2013-06-21 00:46:00,73.0,67.9,30.06,ESE,111,0.0,1.0,84,0.00,,SKC,0.00,VWS V14.01,2013-06-21 05:46:00,
2013-06-21 00:51:00,72.9,67.8,30.06,ESE,111,0.0,1.0,84,0.00,,SKC,0.00,VWS V14.01,2013-06-21 05:51:00,
2013-06-21 00:56:00,72.9,67.8,30.05,ESE,111,0.0,1.0,84,0.00,,SKC,0.00,VWS V14.01,2013-06-21 05:56:00,
2013-06-21 01:01:00,72.8,67.7,30.06,ESE,111,0.0,0.0,84,0.00,,SKC,0.00,VWS V14.01,2013-06-21 06:01:00,
2013-06-21 01:06:00,72.7,67.9,30.05,ESE,111,0.0,0.0,85,0.00,,SKC,0.00,VWS V14.01,2013-06-21 06:06:00,
2013-06-21 01:11:00,72.6,67.8,30.05,ESE,111,0.0,0.0,85,0.00,,SKC,0.00,VWS V14.01,2013-06-21 06:11:00,
2013-06-21 01:16:00,72.5,67.7,30.05,ESE,111,0.0,0.0,85,0.00,,SKC,0.00,VWS V14.01,2013-06-21 06:16:00,
2013-06-21 01:21:00,72.4,67.6,30.05,ESE,111,0.0,0.0,85,0.00,,SKC,0.00,VWS V14.01,2013-06-21 06:21:00,
2013-06-21 01:26:00,72.4,67.6,30.05,ESE,111,0.0,0.0,85,0.00,,SKC,0.00,VWS V14.01,2013-06-21 06:26:00,
2013-06-21 01:31:00,72.4,67.6,30.05,ESE,111,0.0,0.0,85,0.00,,SKC,0.00,VWS V14.01,2013-06-21 06:31:00,
2013-06-21 01:36:00,72.3,67.5,30.04,ESE,111,0.0,0.0,85,0.00,,SKC,0.00,VWS V14.01,2013-06-21 06:36:00,
2013-06-21 01:41:00,72.2,67.4,30.04,ESE,111,0.0,0.0,85,0.00,,SKC,0.00,VWS V14.01,2013-06-21 06:41:00,
2013-06-21 01:46:00,72.2,67.4,30.04,ESE,111,0.0,0.0,85,0.00,,SKC,0.00,VWS V14.01,2013-06-21 06:46:00,
2013-06-21 01:51:00,72.1,67.3,30.04,ESE,111,0.0,0.0,85,0.00,,SKC,0.00,VWS V14.01,2013-06-21 06:51:00,
2013-06-21 01:56:00,72.1,67.3,30.04,ESE,111,0.0,0.0,85,0.00,,SKC,0.00,VWS V14.01,2013-06-21 06:56:00,
2013-06-21 02:01:00,72.0,66.9,30.04,ESE,111,0.0,0.0,84,0.00,,SKC,0.00,VWS V14.01,2013-06-21 07:01:00,
2013-06-21 02:06:00,72.0,66.9,30.04,ESE,111,0.0,0.0,84,0.00,,SKC,0.00,VWS V14.01,2013-06-21 07:06:00,
2013-06-21 02:11:00,72.0,66.9,30.03,ESE,111,0.0,1.0,84,0.00,,SKC,0.00,VWS V14.01,2013-06-21 07:11:00,
2013-06-21 02:16:00,71.9,66.8,30.04,ESE,111,0.0,1.0,84,0.00,,SKC,0.00,VWS V14.01,2013-06-21 07:16:00,
2013-06-21 02:21:00,71.8,66.7,30.04,ESE,111,0.0,1.0,84,0.00,,SKC,0.00,VWS V14.01,2013-06-21 07:21:00,
2013-06-21 02:26:00,71.8,66.7,30.04,ESE,111,0.0,1.0,84,0.00,,SKC,0.00,VWS V14.01,2013-06-21 07:26:00,
2013-06-21 02:31:00,71.8,66.7,30.03,ESE,111,0.0,0.0,84,0.00,,SKC,0.00,VWS V14.01,2013-06-21 07:31:00,
2013-06-21 02:36:00,71.8,66.7,30.03,ESE,111,0.0,1.0,84,0.00,,SKC,0.00,VWS V14.01,2013-06-21 07:36:00,
2013-06-21 02:41:00,71.8,66.7,30.03,ESE,111,0.0,1.0,84,0.00,,SKC,0.00,VWS V14.01,2013-06-21 07:41:00,
2013-06-21 02:46:00,71.8,66.7,30.03,ESE,111,0.0,1.0,84,0.00,,SKC,0.00,VWS V14.01,2013-06-21 07:46:00,
2013-06-21 02:51:00,71.8,66.7,30.03,ESE,111,0.0,1.0,84,0.00,,SKC,0.00,VWS V14.01,2013-06-21 07:51:00,
2013-06-21 02:56:00,71.7,66.6,30.03,ESE,111,0.0,1.0,84,0.00,,SKC,0.00,VWS V14.01,2013-06-21 07:56:00,
2013-06-21 03:01:00,71.7,66.6,30.03,ESE,111,0.0,0.0,84,0.00,,SKC,0.00,VWS V14.01,2013-06-21 08:01:00,
2013-06-21 03:06:00,71.7,66.6,30.03,ESE,111,0.0,1.0,84,0.00,,SKC,0.00,VWS V14.01,2013-06-21 08:06:00,
2013-06-21 03:11:00,71.6,66.5,30.03,ESE,111,0.0,1.0,84,0.00,,SKC,0.00,VWS V14.01,2013-06-21 08:11:00,
2013-06-21 03:16:00,71.6,66.9,30.03,ESE,111,0.0,1.0,85,0.00,,SKC,0.00,VWS V14.01,2013-06-21 08:16:00,
2013-06-21 03:21:00,71.5,66.4,30.03,ESE,111,0.0,1.0,84,0.00,,SKC,0.00,VWS V14.01,2013-06-21 08:21:00,
2013-06-21 03:26:00,71.6,66.5,30.03,ESE,111,0.0,1.0,84,0.00,,SKC,0.00,VWS V14.01,2013-06-21 08:26:00,
2013-06-21 03:31:00,71.6,66.5,30.03,ESE,111,0.0,1.0,84,0.00,,SKC,0.00,VWS V14.01,2013-06-21 08:31:00,
2013-06-21 03:36:00,71.6,66.5,30.03,ESE,111,0.0,1.0,84,0.00,,SKC,0.00,VWS V14.01,2013-06-21 08:36:00,
2013-06-21 03:41:00,71.6,66.9,30.03,ESE,111,0.0,1.0,85,0.00,,SKC,0.00,VWS V14.01,2013-06-21 08:41:00,
2013-06-21 03:46:00,71.5,66.8,30.03,ESE,111,0.0,1.0,85,0.00,,SKC,0.00,VWS V14.01,2013-06-21 08:46:00,
2013-06-21 03:51:00,71.5,66.8,30.03,ESE,111,0.0,1.0,85,0.00,,SKC,0.00,VWS V14.01,2013-06-21 08:51:00,
2013-06-21 03:56:00,71.4,66.7,30.03,ESE,111,0.0,1.0,85,0.00,,SKC,0.00,VWS V14.01,2013-06-21 08:56:00,
2013-06-21 04:01:00,71.4,66.7,30.03,ESE,111,0.0,0.0,85,0.00,,SKC,0.00,VWS V14.01,2013-06-21 09:01:00,
2013-06-21 04:06:00,71.3,66.6,30.03,ESE,111,0.0,0.0,85,0.00,,SKC,0.00,VWS V14.01,2013-06-21 09:06:00,
2013-06-21 04:11:00,71.3,66.6,30.03,ESE,111,0.0,1.0,85,0.00,,SKC,0.00,VWS V14.01,2013-06-21 09:11:00,
2013-06-21 04:16:00,71.3,66.6,30.03,ESE,111,0.0,1.0,85,0.00,,SKC,0.00,VWS V14.01,2013-06-21 09:16:00,
2013-06-21 04:21:00,71.2,66.5,30.03,ESE,111,0.0,1.0,85,0.00,,SKC,0.00,VWS V14.01,2013-06-21 09:21:00,
2013-06-21 04:26:00,71.1,66.4,30.03,ESE,111,0.0,1.0,85,0.00,,SKC,0.00,VWS V14.01,2013-06-21 09:26:00,
2013-06-21 04:31:00,71.1,66.4,30.03,ESE,111,0.0,0.0,85,0.00,,SKC,0.00,VWS V14.01,2013-06-21 09:31:00,
2013-06-21 04:36:00,71.0,66.3,30.03,ESE,111,0.0,1.0,85,0.00,,SKC,0.00,VWS V14.01,2013-06-21 09:36:00,
2013-06-21 04:41:00,71.0,66.3,30.04,ESE,111,0.0,1.0,85,0.00,,SKC,0.00,VWS V14.01,2013-06-21 09:41:00,
2013-06-21 04:46:00,70.9,66.2,30.03,ESE,111,0.0,1.0,85,0.00,,SKC,0.00,VWS V14.01,2013-06-21 09:46:00,
2013-06-21 04:51:00,70.8,66.1,30.04,ESE,111,0.0,1.0,85,0.00,,SKC,0.00,VWS V14.01,2013-06-21 09:51:00,
2013-06-21 04:56:00,70.8,66.1,30.04,ESE,111,0.0,1.0,85,0.00,,SKC,0.00,VWS V14.01,2013-06-21 09:56:00,
2013-06-21 05:01:00,70.8,66.1,30.04,ESE,111,0.0,0.0,85,0.00,,SKC,0.00,VWS V14.01,2013-06-21 10:01:00,
2013-06-21 05:06:00,70.8,66.1,30.04,ESE,111,0.0,0.0,85,0.00,,SKC,0.00,VWS V14.01,2013-06-21 10:06:00,
2013-06-21 05:11:00,70.7,66.0,30.04,ESE,111,0.0,0.0,85,0.00,,SKC,0.00,VWS V14.01,2013-06-21 10:11:00,
2013-06-21 05:16:00,70.6,65.9,30.04,ESE,111,0.0,0.0,85,0.00,,SKC,0.00,VWS V14.01,2013-06-21 10:16:00,
2013-06-21 05:21:00,70.6,65.9,30.04,ESE,111,0.0,0.0,85,0.00,,SKC,0.00,VWS V14.01,2013-06-21 10:21:00,
2013-06-21 05:26:00,70.6,65.9,30.04,ESE,111,0.0,1.0,85,0.00,,SKC,0.00,VWS V14.01,2013-06-21 10:26:00,
2013-06-21 05:31:00,70.5,65.8,30.04,ESE,111,0.0,0.0,85,0.00,,SKC,0.00,VWS V14.01,2013-06-21 10:31:00,
2013-06-21 05:36:00,70.4,65.7,30.04,East,101,0.0,1.0,85,0.00,,SKC,0.00,VWS V14.01,2013-06-21 10:36:00,
2013-06-21 05:41:00,70.5,65.4,30.04,East,96,0.0,1.0,84,0.00,,SKC,0.00,VWS V14.01,2013-06-21 10:41:00,
2013-06-21 05:46:00,70.4,65.7,30.05,East,97,0.0,1.0,85,0.00,,SKC,0.00,VWS V14.01,2013-06-21 10:46:00,
2013-06-21 05:51:00,70.4,65.3,30.05,SE,136,0.0,1.0,84,0.00,,SKC,0.00,VWS V14.01,2013-06-21 10:51:00,
2013-06-21 05:56:00,70.4,65.7,30.05,SSW,203,0.0,1.0,85,0.00,,SKC,0.00,VWS V14.01,2013-06-21 10:56:00,
2013-06-21 06:01:00,70.4,65.7,30.05,SSW,197,0.0,0.0,85,0.00,,SKC,0.00,VWS V14.01,2013-06-21 11:01:00,
2013-06-21 06:06:00,70.3,65.2,30.05,WNW,296,0.0,0.0,84,0.00,,SKC,0.00,VWS V14.01,2013-06-21 11:06:00,
2013-06-21 06:11:00,70.4,65.3,30.05,WNW,292,0.0,1.0,84,0.00,,SKC,0.00,VWS V14.01,2013-06-21 11:11:00,
2013-06-21 06:16:00,70.6,65.5,30.05,NE,46,0.0,1.0,84,0.00,,SKC,0.00,VWS V14.01,2013-06-21 11:16:00,
2013-06-21 06:21:00,70.8,65.7,30.05,NE,47,0.0,2.0,84,0.00,,SKC,0.00,VWS V14.01,2013-06-21 11:21:00,
2013-06-21 06:26:00,71.1,66.0,30.06,NE,40,0.0,2.0,84,0.00,,SKC,0.00,VWS V14.01,2013-06-21 11:26:00,
2013-06-21 06:31:00,71.3,66.2,30.06,ESE,113,0.0,1.0,84,0.00,,SKC,0.00,VWS V14.01,2013-06-21 11:31:00,
2013-06-21 06:36:00,71.7,66.9,30.06,ESE,111,1.0,2.0,85,0.00,,SKC,0.00,VWS V14.01,2013-06-21 11:36:00,
2013-06-21 06:41:00,72.0,67.6,30.06,ESE,111,0.0,4.0,86,0.00,,SKC,0.00,VWS V14.01,2013-06-21 11:41:00,
2013-06-21 06:46:00,72.3,68.2,30.06,ENE,78,0.0,5.0,87,0.00,,SKC,0.00,VWS V14.01,2013-06-21 11:46:00,
2013-06-21 06:51:00,72.7,68.9,30.06,ENE,78,0.0,5.0,88,0.00,,SKC,0.00,VWS V14.01,2013-06-21 11:51:00,
2013-06-21 06:56:00,73.1,69.7,30.07,NE,53,0.0,5.0,89,0.00,,SKC,0.00,VWS V14.01,2013-06-21 11:56:00,
2013-06-21 07:01:00,73.5,70.1,30.07,NE,52,5.0,5.0,89,0.00,,SKC,0.00,VWS V14.01,2013-06-21 12:01:00,
2013-06-21 07:06:00,73.8,70.4,30.06,ENE,58,4.0,6.0,89,0.00,,SKC,0.00,VWS V14.01,2013-06-21 12:06:00,
2013-06-21 07:11:00,74.1,71.0,30.07,ESE,115,0.0,6.0,90,0.00,,SKC,0.00,VWS V14.01,2013-06-21 12:11:00,
2013-06-21 07:16:00,74.5,71.1,30.07,ESE,115,1.0,6.0,89,0.00,,SKC,0.00,VWS V14.01,2013-06-21 12:16:00,
2013-06-21 07:21:00,74.8,71.3,30.07,ENE,76,0.0,7.0,89,0.00,,SKC,0.00,VWS V14.01,2013-06-21 12:21:00,
2013-06-21 07:26:00,75.2,71.7,30.07,ESE,103,4.0,7.0,89,0.00,,SKC,0.00,VWS V14.01,2013-06-21 12:26:00,
2013-06-21 07:31:00,75.6,72.1,30.07,East,93,6.0,7.0,89,0.00,,SKC,0.00,VWS V14.01,2013-06-21 12:31:00,
2013-06-21 07:36:00,75.9,72.4,30.07,East,88,4.0,7.0,89,0.00,,SKC,0.00,VWS V14.01,2013-06-21 12:36:00,
2013-06-21 07:41:00,76.1,72.6,30.07,ESE,119,5.0,8.0,89,0.00,,SKC,0.00,VWS V14.01,2013-06-21 12:41:00,
2013-06-21 07:46:00,76.4,72.9,30.07,ESE,116,4.0,8.0,89,0.00,,SKC,0.00,VWS V14.01,2013-06-21 12:46:00,
2013-06-21 07:51:00,76.7,72.9,30.07,East,86,5.0,8.0,88,0.00,,SKC,0.00,VWS V14.01,2013-06-21 12:51:00,
2013-06-21 07:56:00,77.1,73.3,30.08,East,98,5.0,8.0,88,0.00,,SKC,0.00,VWS V14.01,2013-06-21 12:56:00,
2013-06-21 08:01:00,77.4,73.6,30.08,East,85,5.0,6.0,88,0.00,,SKC,0.00,VWS V14.01,2013-06-21 13:01:00,
2013-06-21 08:06:00,77.7,73.9,30.08,East,90,6.0,7.0,88,0.00,,SKC,0.00,VWS V14.01,2013-06-21 13:06:00,
2013-06-21 08:11:00,77.9,74.1,30.08,East,96,2.0,9.0,88,0.00,,SKC,0.00,VWS V14.01,2013-06-21 13:11:00,
2013-06-21 08:16:00,78.2,74.0,30.08,SE,138,5.0,9.0,87,0.00,,SKC,0.00,VWS V14.01,2013-06-21 13:16:00,
2013-06-21 08:21:00,78.4,73.9,30.08,SE,132,6.0,9.0,86,0.00,,SKC,0.00,VWS V14.01,2013-06-21 13:21:00,
2013-06-21 08:26:00,78.4,73.9,30.08,East,87,5.0,9.0,86,0.00,,SKC,0.00,VWS V14.01,2013-06-21 13:26:00,
2013-06-21 08:31:00,78.6,74.1,30.08,East,88,4.0,8.0,86,0.00,,SKC,0.00,VWS V14.01,2013-06-21 13:31:00,
2013-06-21 08:36:00,78.9,74.4,30.08,East,91,4.0,8.0,86,0.00,,SKC,0.00,VWS V14.01,2013-06-21 13:36:00,
2013-06-21 08:41:00,79.3,74.1,30.08,ESE,110,6.0,9.0,84,0.00,,SKC,0.00,VWS V14.01,2013-06-21 13:41:00,
2013-06-21 08:46:00,79.5,74.6,30.09,ESE,123,4.0,9.0,85,0.00,,SKC,0.00,VWS V14.01,2013-06-21 13:46:00,
2013-06-21 08:51:00,79.9,75.0,30.08,ESE,105,6.0,9.0,85,0.00,,SKC,0.00,VWS V14.01,2013-06-21 13:51:00,
2013-06-21 08:56:00,80.2,74.9,30.08,East,84,5.0,9.0,84,0.00,,SKC,0.00,VWS V14.01,2013-06-21 13:56:00,
2013-06-21 09:01:00,80.5,75.2,30.08,East,81,7.0,7.0,84,0.00,,SKC,0.00,VWS V14.01,2013-06-21 14:01:00,
2013-06-21 09:06:00,80.9,75.6,30.09,East,96,6.0,7.0,84,0.00,,SKC,0.00,VWS V14.01,2013-06-21 14:06:00,
2013-06-21 09:11:00,81.1,75.4,30.09,ESE,122,8.0,8.0,83,0.00,,SKC,0.00,VWS V14.01,2013-06-21 14:11:00,
2013-06-21 09:16:00,81.3,75.7,30.09,ESE,123,5.0,12.0,83,0.00,,SKC,0.00,VWS V14.01,2013-06-21 14:16:00,
2013-06-21 09:21:00,81.6,75.2,30.09,ESE,123,9.0,12.0,81,0.00,,SKC,0.00,VWS V14.01,2013-06-21 14:21:00,
2013-06-21 09:26:00,81.6,75.6,30.09,ESE,122,8.0,12.0,82,0.00,,SKC,0.00,VWS V14.01,2013-06-21 14:26:00,
2013-06-21 09:31:00,81.8,75.0,30.09,SSE,157,5.0,9.0,80,0.00,,SKC,0.00,VWS V14.01,2013-06-21 14:31:00,
2013-06-21 09:36:00,82.1,75.7,30.09,ESE,107,4.0,10.0,81,0.00,,SKC,0.00,VWS V14.01,2013-06-21 14:36:00,
2013-06-21 09:41:00,82.3,75.9,30.09,East,88,2.0,11.0,81,0.00,,SKC,0.00,VWS V14.01,2013-06-21 14:41:00,
2013-06-21 09:46:00,82.6,75.4,30.09,East,90,5.0,11.0,79,0.00,,SKC,0.00,VWS V14.01,2013-06-21 14:46:00,
2013-06-21 09:51:00,82.7,75.9,30.09,ESE,116,7.0,11.0,80,0.00,,SKC,0.00,VWS V14.01,2013-06-21 14:51:00,
2013-06-21 09:56:00,82.7,75.2,30.09,East,90,5.0,11.0,78,0.00,,SKC,0.00,VWS V14.01,2013-06-21 14:56:00,
2013-06-21 10:01:00,82.8,75.6,30.09,ESE,105,4.0,7.0,79,0.00,,SKC,0.00,VWS V14.01,2013-06-21 15:01:00,
2013-06-21 10:07:00,83.2,75.6,30.09,SE,127,7.0,10.0,78,0.00,,SKC,0.00,VWS V14.01,2013-06-21 15:07:00,
2013-06-21 10:12:00,83.3,75.7,30.09,SE,125,4.0,10.0,78,0.00,,SKC,0.00,VWS V14.01,2013-06-21 15:12:00,
2013-06-21 10:17:00,83.5,75.9,30.09,ESE,121,4.0,10.0,78,0.00,,SKC,0.00,VWS V14.01,2013-06-21 15:17:00,
2013-06-21 10:22:00,83.9,76.3,30.09,East,84,7.0,10.0,78,0.00,,SKC,0.00,VWS V14.01,2013-06-21 15:22:00,
2013-06-21 10:27:00,84.1,75.7,30.09,ESE,117,4.0,10.0,76,0.00,,SKC,0.00,VWS V14.01,2013-06-21 15:27:00,
2013-06-21 10:32:00,84.4,76.8,30.10,SE,134,5.0,8.0,78,0.00,,SKC,0.00,VWS V14.01,2013-06-21 15:32:00,
2013-06-21 10:37:00,84.6,76.6,30.10,SE,139,4.0,11.0,77,0.00,,SKC,0.00,VWS V14.01,2013-06-21 15:37:00,
2013-06-21 10:42:00,84.5,76.1,30.10,SE,134,9.0,11.0,76,0.00,,SKC,0.00,VWS V14.01,2013-06-21 15:42:00,
2013-06-21 10:47:00,84.3,76.3,30.10,ESE,111,4.0,11.0,77,0.00,,SKC,0.00,VWS V14.01,2013-06-21 15:47:00,
2013-06-21 10:52:00,84.4,77.2,30.10,East,96,4.0,11.0,79,0.00,,SKC,0.00,VWS V14.01,2013-06-21 15:52:00,
2013-06-21 10:57:00,84.8,76.8,30.10,ESE,104,7.0,11.0,77,0.00,,SKC,0.00,VWS V14.01,2013-06-21 15:57:00,
2013-06-21 11:02:00,84.9,77.3,30.10,East,98,7.0,7.0,78,0.00,,SKC,0.00,VWS V14.01,2013-06-21 16:02:00,
2013-06-21 11:07:00,85.0,76.2,30.10,ESE,122,4.0,8.0,75,0.00,,SKC,0.00,VWS V14.01,2013-06-21 16:07:00,
2013-06-21 11:12:00,85.0,75.8,30.09,East,95,4.0,8.0,74,0.00,,SKC,0.00,VWS V14.01,2013-06-21 16:12:00,
2013-06-21 11:17:00,84.8,76.0,30.09,ENE,69,0.0,9.0,75,0.00,,SKC,0.00,VWS V14.01,2013-06-21 16:17:00,
2013-06-21 11:22:00,85.1,75.9,30.09,SE,130,5.0,9.0,74,0.00,,SKC,0.00,VWS V14.01,2013-06-21 16:22:00,
2013-06-21 11:27:00,85.4,76.6,30.09,East,101,0.0,9.0,75,0.00,,SKC,0.00,VWS V14.01,2013-06-21 16:27:00,
2013-06-21 11:32:00,85.5,75.9,30.09,ENE,74,0.0,5.0,73,0.00,,SKC,0.00,VWS V14.01,2013-06-21 16:32:00,
2013-06-21 11:37:00,85.9,75.8,30.09,East,81,4.0,10.0,72,0.00,,SKC,0.00,VWS V14.01,2013-06-21 16:37:00,
2013-06-21 11:42:00,86.1,76.4,30.09,East,81,6.0,10.0,73,0.00,,SKC,0.00,VWS V14.01,2013-06-21 16:42:00,
2013-06-21 11:47:00,86.0,76.3,30.09,ESE,102,6.0,10.0,73,0.00,,SKC,0.00,VWS V14.01,2013-06-21 16:47:00,
2013-06-21 11:52:00,85.9,75.8,30.09,East,84,4.0,10.0,72,0.00,,SKC,0.00,VWS V14.01,2013-06-21 16:52:00,
2013-06-21 11:57:00,85.6,76.4,30.10,East,85,2.0,10.0,74,0.00,,SKC,0.00,VWS V14.01,2013-06-21 16:57:00,
2013-06-21 12:03:00,85.4,75.3,30.10,ENE,77,0.0,4.0,72,0.00,,SKC,0.00,VWS V14.01,2013-06-21 17:03:00,
2013-06-21 12:08:00,85.8,76.6,30.10,East,84,0.0,5.0,74,0.00,,SKC,0.00,VWS V14.01,2013-06-21 17:08:00,
2013-06-21 12:14:00,86.1,76.0,30.09,ENE,78,0.0,5.0,72,0.00,,SKC,0.00,VWS V14.01,2013-06-21 17:14:00,
2013-06-21 12:19:00,86.1,76.0,30.09,ESE,104,5.0,7.0,72,0.00,,SKC,0.00,VWS V14.01,2013-06-21 17:19:00,
2013-06-21 12:24:00,86.0,75.1,30.09,ESE,111,0.0,7.0,70,0.00,,SKC,0.00,VWS V14.01,2013-06-21 17:24:00,
2013-06-21 12:29:00,86.2,74.8,30.09,East,80,0.0,7.0,69,0.00,,SKC,0.00,VWS V14.01,2013-06-21 17:29:00,
2013-06-21 12:34:00,86.8,75.8,30.09,East,80,0.0,4.0,70,0.00,,SKC,0.00,VWS V14.01,2013-06-21 17:34:00,
2013-06-21 12:39:00,87.1,74.8,30.09,East,92,0.0,7.0,67,0.00,,SKC,0.00,VWS V14.01,2013-06-21 17:39:00,
2013-06-21 12:44:00,87.2,75.4,30.08,North,11,0.0,7.0,68,0.00,,SKC,0.00,VWS V14.01,2013-06-21 17:44:00,
2013-06-21 12:46:00,87.3,75.0,30.09,North,11,0.0,7.0,67,0.00,,SKC,0.00,VWS V14.01,2013-06-21 17:46:00,
2013-06-21 12:51:00,87.3,75.0,30.09,SE,136,4.0,8.0,67,0.00,,SKC,0.00,VWS V14.01,2013-06-21 17:51:00,
2013-06-21 12:56:00,87.4,76.0,30.08,ESE,115,2.0,8.0,69,0.00,,SKC,0.00,VWS V14.01,2013-06-21 17:56:00,
2013-06-21 13:01:00,87.6,74.4,30.08,ENE,76,1.0,4.0,65,0.00,,SKC,0.00,VWS V14.01,2013-06-21 18:01:00,
2013-06-21 13:06:00,86.2,76.5,30.09,SE,132,12.0,15.0,73,0.00,,SKC,0.00,VWS V14.01,2013-06-21 18:06:00,
2013-06-21 13:12:00,84.4,75.6,30.09,SSE,164,5.0,15.0,75,0.00,,SKC,0.00,VWS V14.01,2013-06-21 18:12:00,
2013-06-21 13:17:00,83.8,75.8,30.08,SSE,155,6.0,15.0,77,0.00,,SKC,0.00,VWS V14.01,2013-06-21 18:17:00,
2013-06-21 13:22:00,84.2,76.6,30.08,South,172,5.0,15.0,78,0.00,,SKC,0.00,VWS V14.01,2013-06-21 18:22:00,
2013-06-21 13:23:00,84.4,77.2,30.08,SSE,155,7.0,15.0,79,0.00,,SKC,0.00,VWS V14.01,2013-06-21 18:23:00,
2013-06-21 13:24:00,84.5,76.9,30.08,SSE,151,7.0,15.0,78,0.00,,SKC,0.00,VWS V14.01,2013-06-21 18:24:00,
2013-06-21 13:29:00,84.6,74.6,30.08,SE,138,10.0,15.0,72,0.00,,SKC,0.00,VWS V14.01,2013-06-21 18:29:00,
2013-06-21 13:34:00,84.5,74.5,30.08,SSE,163,6.0,11.0,72,0.00,,SKC,0.00,VWS V14.01,2013-06-21 18:34:00,
2013-06-21 13:39:00,84.3,75.1,30.08,South,175,5.0,11.0,74,0.00,,SKC,0.00,VWS V14.01,2013-06-21 18:39:00,
2013-06-21 13:44:00,84.4,76.0,30.08,SSE,157,2.0,11.0,76,0.00,,SKC,0.00,VWS V14.01,2013-06-21 18:44:00,
2013-06-21 13:45:00,84.4,76.4,30.08,SE,130,1.0,11.0,77,0.00,,SKC,0.00,VWS V14.01,2013-06-21 18:45:00,
2013-06-21 13:50:00,85.0,77.0,30.08,WSW,258,7.0,11.0,77,0.00,,SKC,0.00,VWS V14.01,2013-06-21 18:50:00,
2013-06-21 13:55:00,84.7,75.5,30.08,WSW,257,0.0,11.0,74,0.00,,SKC,0.00,VWS V14.01,2013-06-21 18:55:00,
2013-06-21 14:00:00,84.3,76.7,30.08,WNW,292,5.0,8.0,78,0.00,,SKC,0.00,VWS V14.01,2013-06-21 19:00:00,
2013-06-21 14:05:00,84.4,77.2,30.08,West,265,6.0,11.0,79,0.00,,SKC,0.00,VWS V14.01,2013-06-21 19:05:00,
2013-06-21 14:11:00,84.5,76.5,30.07,SW,236,10.0,11.0,77,0.00,,SKC,0.00,VWS V14.01,2013-06-21 19:11:00,
2013-06-21 14:16:00,84.3,75.9,30.07,SW,231,7.0,11.0,76,0.00,,SKC,0.00,VWS V14.01,2013-06-21 19:16:00,
2013-06-21 14:20:00,84.7,77.1,30.07,WSW,240,7.0,11.0,78,0.00,,SKC,0.00,VWS V14.01,2013-06-21 19:20:00,
2013-06-21 14:25:00,84.6,75.4,30.07,SW,233,5.0,11.0,74,0.00,,SKC,0.00,VWS V14.01,2013-06-21 19:25:00,
2013-06-21 14:30:00,84.6,76.2,30.06,SW,225,7.0,11.0,76,0.00,,SKC,0.00,VWS V14.01,2013-06-21 19:30:00,
2013-06-21 14:35:00,84.9,76.5,30.06,WSW,239,3.0,11.0,76,0.00,,SKC,0.00,VWS V14.01,2013-06-21 19:35:00,
2013-06-21 14:40:00,84.9,77.3,30.06,WSW,237,6.0,11.0,78,0.00,,SKC,0.00,VWS V14.01,2013-06-21 19:40:00,
2013-06-21 14:42:00,84.8,76.8,30.06,WSW,257,5.0,11.0,77,0.00,,SKC,0.00,VWS V14.01,2013-06-21 19:42:00,
2013-06-21 14:47:00,84.2,78.1,30.07,ESE,115,7.0,12.0,82,0.00,,SKC,0.00,VWS V14.01,2013-06-21 19:47:00,
2013-06-21 14:52:00,78.2,71.2,30.08,ESE,109,9.0,21.0,79,0.14,,SKC,0.14,VWS V14.01,2013-06-21 19:52:00,
2013-06-21 14:57:00,74.9,69.0,30.09,SE,128,12.0,21.0,82,0.25,,SKC,0.25,VWS V14.01,2013-06-21 19:57:00,
2013-06-21 15:02:00,73.5,69.1,30.09,East,95,5.0,10.0,86,0.32,,SKC,0.32,VWS V14.01,2013-06-21 20:02:00,
2013-06-21 15:04:00,73.1,69.0,30.09,ENE,75,10.0,12.0,87,0.34,,SKC,0.34,VWS V14.01,2013-06-21 20:04:00,
2013-06-21 15:08:00,72.9,69.5,30.08,East,88,8.0,12.0,89,0.41,,SKC,0.41,VWS V14.01,2013-06-21 20:08:00,
2013-06-21 15:11:00,73.2,69.4,30.08,SE,144,6.0,12.0,88,0.44,,SKC,0.44,VWS V14.01,2013-06-21 20:11:00,
2013-06-21 15:13:00,73.3,69.5,30.07,East,101,6.0,12.0,88,0.45,,SKC,0.45,VWS V14.01,2013-06-21 20:13:00,
2013-06-21 15:18:00,73.8,69.7,30.07,SE,128,5.0,12.0,87,0.46,,SKC,0.46,VWS V14.01,2013-06-21 20:18:00,
2013-06-21 15:23:00,74.7,69.9,30.07,NE,49,4.0,12.0,85,0.47,,SKC,0.47,VWS V14.01,2013-06-21 20:23:00,
2013-06-21 15:28:00,75.2,71.1,30.07,East,80,4.0,12.0,87,0.47,,SKC,0.47,VWS V14.01,2013-06-21 20:28:00,
2013-06-21 15:33:00,75.8,71.7,30.07,ESE,105,0.0,5.0,87,0.47,,SKC,0.47,VWS V14.01,2013-06-21 20:33:00,
2013-06-21 15:38:00,76.7,73.2,30.06,East,88,1.0,6.0,89,0.47,,SKC,0.47,VWS V14.01,2013-06-21 20:38:00,
2013-06-21 15:43:00,78.0,74.2,30.07,East,91,3.0,6.0,88,0.47,,SKC,0.47,VWS V14.01,2013-06-21 20:43:00,
2013-06-21 15:49:00,79.1,74.2,30.06,East,91,0.0,6.0,85,0.47,,SKC,0.47,VWS V14.01,2013-06-21 20:49:00,
2013-06-21 15:54:00,80.1,74.5,30.06,East,82,0.0,6.0,83,0.47,,SKC,0.47,VWS V14.01,2013-06-21 20:54:00,
2013-06-21 15:59:00,80.9,74.5,30.05,East,80,0.0,6.0,81,0.47,,SKC,0.47,VWS V14.01,2013-06-21 20:59:00,
2013-06-21 16:03:00,81.4,75.7,30.05,East,91,0.0,1.0,83,0.18,,SKC,0.47,VWS V14.01,2013-06-21 21:03:00,
2013-06-21 16:04:00,81.4,75.4,30.05,East,92,0.0,1.0,82,0.18,,SKC,0.47,VWS V14.01,2013-06-21 21:04:00,
2013-06-21 16:09:00,82.0,76.7,30.05,East,91,0.0,4.0,84,0.18,,SKC,0.47,VWS V14.01,2013-06-21 21:09:00,
2013-06-21 16:14:00,82.1,76.1,30.05,ESE,117,2.0,4.0,82,0.18,,SKC,0.47,VWS V14.01,2013-06-21 21:14:00,
2013-06-21 16:19:00,82.0,76.3,30.06,ESE,115,0.0,4.0,83,0.18,,SKC,0.47,VWS V14.01,2013-06-21 21:19:00,
2013-06-21 16:24:00,82.2,76.9,30.06,ESE,116,3.0,4.0,84,0.18,,SKC,0.47,VWS V14.01,2013-06-21 21:24:00,
2013-06-21 16:29:00,82.1,76.4,30.06,ESE,116,1.0,4.0,83,0.18,,SKC,0.47,VWS V14.01,2013-06-21 21:29:00,
2013-06-21 16:34:00,82.3,76.6,30.06,ESE,115,1.0,4.0,83,0.00,,SKC,0.47,VWS V14.01,2013-06-21 21:34:00,
2013-06-21 16:39:00,82.6,76.9,30.06,ESE,103,3.0,6.0,83,0.00,,SKC,0.47,VWS V14.01,2013-06-21 21:39:00,
2013-06-21 16:44:00,82.8,77.1,30.05,ENE,75,5.0,7.0,83,0.00,,SKC,0.47,VWS V14.01,2013-06-21 21:44:00,
2013-06-21 16:49:00,82.8,77.1,30.06,ESE,103,4.0,7.0,83,0.00,,SKC,0.47,VWS V14.01,2013-06-21 21:49:00,
2013-06-21 16:54:00,82.7,77.4,30.05,East,96,5.0,7.0,84,0.00,,SKC,0.47,VWS V14.01,2013-06-21 21:54:00,
2013-06-21 16:59:00,82.5,76.4,30.05,ENE,58,0.0,7.0,82,0.01,,SKC,0.48,VWS V14.01,2013-06-21 21:59:00,
2013-06-21 17:04:00,82.2,77.6,30.07,ENE,65,4.0,8.0,86,0.01,,SKC,0.48,VWS V14.01,2013-06-21 22:04:00,
2013-06-21 17:09:00,81.0,76.1,30.07,ENE,69,5.0,11.0,85,0.01,,SKC,0.48,VWS V14.01,2013-06-21 22:09:00,
2013-06-21 17:14:00,80.2,76.0,30.07,ENE,70,0.0,11.0,87,0.01,,SKC,0.48,VWS V14.01,2013-06-21 22:14:00,
2013-06-21 17:19:00,79.4,74.8,30.07,East,92,0.0,11.0,86,0.01,,SKC,0.48,VWS V14.01,2013-06-21 22:19:00,
2013-06-21 17:24:00,78.4,73.5,30.06,NE,43,4.0,11.0,85,0.01,,SKC,0.48,VWS V14.01,2013-06-21 22:24:00,
2013-06-21 17:29:00,77.5,72.6,30.06,ESE,111,5.0,11.0,85,0.01,,SKC,0.48,VWS V14.01,2013-06-21 22:29:00,
2013-06-21 17:34:00,76.8,71.9,30.05,ENE,73,2.0,5.0,85,0.01,,SKC,0.48,VWS V14.01,2013-06-21 22:34:00,
2013-06-21 17:39:00,76.3,71.8,30.05,ENE,75,0.0,5.0,86,0.01,,SKC,0.48,VWS V14.01,2013-06-21 22:39:00,
2013-06-21 17:44:00,76.0,71.9,30.05,NW,304,0.0,5.0,87,0.01,,SKC,0.48,VWS V14.01,2013-06-21 22:44:00,
2013-06-21 17:49:00,75.8,71.7,30.06,NE,55,0.0,5.0,87,0.01,,SKC,0.48,VWS V14.01,2013-06-21 22:49:00,
2013-06-21 17:54:00,75.8,72.0,30.06,NNE,14,0.0,5.0,88,0.01,,SKC,0.48,VWS V14.01,2013-06-21 22:54:00,
2013-06-21 17:59:00,75.7,72.2,30.06,North,9,0.0,5.0,89,0.01,,SKC,0.48,VWS V14.01,2013-06-21 22:59:00,
2013-06-21 18:04:00,75.6,72.1,30.06,NNE,32,0.0,1.0,89,0.00,,SKC,0.48,VWS V14.01,2013-06-21 23:04:00,
2013-06-21 18:09:00,75.6,72.1,30.05,NNE,27,0.0,1.0,89,0.00,,SKC,0.48,VWS V14.01,2013-06-21 23:09:00,
2013-06-21 18:14:00,75.6,72.1,30.05,NNE,27,0.0,1.0,89,0.00,,SKC,0.48,VWS V14.01,2013-06-21 23:14:00,
2013-06-21 18:19:00,75.6,72.1,30.05,NNE,27,1.0,2.0,89,0.00,,SKC,0.48,VWS V14.01,2013-06-21 23:19:00,
2013-06-21 18:24:00,75.6,72.1,30.04,NNE,24,0.0,2.0,89,0.00,,SKC,0.48,VWS V14.01,2013-06-21 23:24:00,
2013-06-21 18:29:00,75.7,72.2,30.05,NNE,30,0.0,2.0,89,0.00,,SKC,0.48,VWS V14.01,2013-06-21 23:29:00,
2013-06-21 18:34:00,75.9,72.4,30.05,NE,36,0.0,2.0,89,0.00,,SKC,0.48,VWS V14.01,2013-06-21 23:34:00,
2013-06-21 18:39:00,76.4,72.9,30.05,NE,34,0.0,2.0,89,0.00,,SKC,0.48,VWS V14.01,2013-06-21 23:39:00,
2013-06-21 18:44:00,77.0,73.2,30.04,NE,34,0.0,2.0,88,0.00,,SKC,0.48,VWS V14.01,2013-06-21 23:44:00,
2013-06-21 18:49:00,77.3,73.5,30.05,NE,42,0.0,2.0,88,0.00,,SKC,0.48,VWS V14.01,2013-06-21 23:49:00,
2013-06-21 18:54:00,77.6,73.8,30.05,NNE,32,0.0,2.0,88,0.00,,SKC,0.48,VWS V14.01,2013-06-21 23:54:00,
2013-06-21 18:59:00,78.1,73.9,30.04,NNE,32,0.0,2.0,87,0.00,,SKC,0.48,VWS V14.01,2013-06-21 23:59:00,
2013-06-21 19:04:00,78.7,74.2,30.04,NNE,32,0.0,0.0,86,0.00,,SKC,0.48,VWS V14.01,2013-06-22 00:04:00,
2013-06-21 19:09:00,79.2,74.7,30.04,NE,41,0.0,1.0,86,0.00,,SKC,0.48,VWS V14.01,2013-06-22 00:09:00,
2013-06-21 19:14:00,79.4,74.5,30.04,North,350,0.0,1.0,85,0.00,,SKC,0.48,VWS V14.01,2013-06-22 00:14:00,
2013-06-21 19:19:00,79.6,75.1,30.04,North,355,0.0,1.0,86,0.00,,SKC,0.48,VWS V14.01,2013-06-22 00:19:00,
2013-06-21 19:24:00,79.6,75.4,30.05,NW,311,0.0,1.0,87,0.00,,SKC,0.48,VWS V14.01,2013-06-22 00:24:00,
2013-06-21 19:29:00,79.3,74.8,30.05,WSW,246,0.0,1.0,86,0.00,,SKC,0.48,VWS V14.01,2013-06-22 00:29:00,
2013-06-21 19:34:00,79.0,75.2,30.05,SW,223,0.0,0.0,88,0.00,,SKC,0.48,VWS V14.01,2013-06-22 00:34:00,
2013-06-21 19:39:00,78.5,74.7,30.05,SW,227,0.0,0.0,88,0.00,,SKC,0.48,VWS V14.01,2013-06-22 00:39:00,
2013-06-21 19:44:00,78.2,74.7,30.05,SW,234,0.0,1.0,89,0.00,,SKC,0.48,VWS V14.01,2013-06-22 00:44:00,
2013-06-21 19:49:00,77.9,74.1,30.05,SE,144,0.0,1.0,88,0.00,,SKC,0.48,VWS V14.01,2013-06-22 00:49:00,
2013-06-21 19:54:00,77.5,74.0,30.05,SE,146,0.0,1.0,89,0.00,,SKC,0.48,VWS V14.01,2013-06-22 00:54:00,
2013-06-21 19:59:00,77.1,73.6,30.05,SE,128,0.0,1.0,89,0.00,,SKC,0.48,VWS V14.01,2013-06-22 00:59:00,
2013-06-21 20:04:00,76.9,73.1,30.05,SE,128,0.0,0.0,88,0.00,,SKC,0.48,VWS V14.01,2013-06-22 01:04:00,
2013-06-21 20:09:00,76.7,72.9,30.05,SE,128,0.0,0.0,88,0.00,,SKC,0.48,VWS V14.01,2013-06-22 01:09:00,
2013-06-21 20:14:00,76.4,72.6,30.05,SE,128,0.0,0.0,88,0.00,,SKC,0.48,VWS V14.01,2013-06-22 01:14:00,
2013-06-21 20:19:00,76.1,72.3,30.05,SE,128,0.0,0.0,88,0.00,,SKC,0.48,VWS V14.01,2013-06-22 01:19:00,
2013-06-21 20:24:00,75.9,72.1,30.05,SE,128,0.0,0.0,88,0.00,,SKC,0.48,VWS V14.01,2013-06-22 01:24:00,
2013-06-21 20:29:00,75.7,71.9,30.05,SE,128,0.0,0.0,88,0.00,,SKC,0.48,VWS V14.01,2013-06-22 01:29:00,
2013-06-21 20:34:00,75.5,71.7,30.06,SE,128,0.0,0.0,88,0.00,,SKC,0.48,VWS V14.01,2013-06-22 01:34:00,
2013-06-21 20:39:00,75.3,71.2,30.06,SE,128,0.0,0.0,87,0.00,,SKC,0.48,VWS V14.01,2013-06-22 01:39:00,
2013-06-21 20:44:00,75.2,71.1,30.05,SE,128,0.0,0.0,87,0.00,,SKC,0.48,VWS V14.01,2013-06-22 01:44:00,
2013-06-21 20:49:00,75.0,70.9,30.05,SE,128,0.0,0.0,87,0.00,,SKC,0.48,VWS V14.01,2013-06-22 01:49:00,
2013-06-21 20:54:00,74.8,70.7,30.06,SE,128,0.0,0.0,87,0.00,,SKC,0.48,VWS V14.01,2013-06-22 01:54:00,
2013-06-21 20:59:00,74.7,70.6,30.06,SE,128,0.0,0.0,87,0.00,,SKC,0.48,VWS V14.01,2013-06-22 01:59:00,
2013-06-21 21:04:00,74.7,70.2,30.06,SE,128,0.0,1.0,86,0.00,,SKC,0.48,VWS V14.01,2013-06-22 02:04:00,
2013-06-21 21:09:00,74.7,70.2,30.06,SE,128,0.0,1.0,86,0.00,,SKC,0.48,VWS V14.01,2013-06-22 02:09:00,
2013-06-21 21:14:00,74.7,69.9,30.06,SE,128,0.0,1.0,85,0.00,,SKC,0.48,VWS V14.01,2013-06-22 02:14:00,
2013-06-21 21:19:00,74.6,69.8,30.07,SE,128,0.0,1.0,85,0.00,,SKC,0.48,VWS V14.01,2013-06-22 02:19:00,
2013-06-21 21:24:00,74.6,69.8,30.07,SE,128,0.0,1.0,85,0.00,,SKC,0.48,VWS V14.01,2013-06-22 02:24:00,
2013-06-21 21:29:00,74.7,69.9,30.07,SE,128,0.0,1.0,85,0.00,,SKC,0.48,VWS V14.01,2013-06-22 02:29:00,
2013-06-21 21:34:00,74.7,69.6,30.07,SE,128,0.0,1.0,84,0.00,,SKC,0.48,VWS V14.01,2013-06-22 02:34:00,
2013-06-21 21:39:00,74.7,69.6,30.07,SE,128,0.0,2.0,84,0.00,,SKC,0.48,VWS V14.01,2013-06-22 02:39:00,
2013-06-21 21:44:00,74.6,69.8,30.07,SE,128,0.0,3.0,85,0.00,,SKC,0.48,VWS V14.01,2013-06-22 02:44:00,
2013-06-21 21:49:00,74.6,69.8,30.07,SE,128,1.0,4.0,85,0.00,,SKC,0.48,VWS V14.01,2013-06-22 02:49:00,
2013-06-21 21:54:00,74.7,69.9,30.08,SE,128,0.0,5.0,85,0.00,,SKC,0.48,VWS V14.01,2013-06-22 02:54:00,
2013-06-21 21:59:00,74.7,69.9,30.08,SE,127,0.0,5.0,85,0.00,,SKC,0.48,VWS V14.01,2013-06-22 02:59:00,
2013-06-21 22:04:00,74.6,70.1,30.08,SE,127,1.0,2.0,86,0.00,,SKC,0.48,VWS V14.01,2013-06-22 03:04:00,
2013-06-21 22:09:00,74.6,70.1,30.08,SE,127,4.0,5.0,86,0.00,,SKC,0.48,VWS V14.01,2013-06-22 03:09:00,
2013-06-21 22:14:00,74.4,70.3,30.08,ENE,77,6.0,7.0,87,0.00,,SKC,0.48,VWS V14.01,2013-06-22 03:14:00,
2013-06-21 22:19:00,74.4,70.6,30.08,ENE,77,1.0,7.0,88,0.00,,SKC,0.48,VWS V14.01,2013-06-22 03:19:00,
2013-06-21 22:24:00,74.3,70.5,30.08,ENE,77,0.0,7.0,88,0.00,,SKC,0.48,VWS V14.01,2013-06-22 03:24:00,
2013-06-21 22:29:00,74.2,70.4,30.08,ENE,77,0.0,7.0,88,0.00,,SKC,0.48,VWS V14.01,2013-06-22 03:29:00,
2013-06-21 22:34:00,74.1,70.3,30.08,ENE,77,0.0,1.0,88,0.00,,SKC,0.48,VWS V14.01,2013-06-22 03:34:00,
2013-06-21 22:39:00,74.0,70.2,30.08,ENE,77,0.0,1.0,88,0.00,,SKC,0.48,VWS V14.01,2013-06-22 03:39:00,
2013-06-21 22:44:00,73.8,70.0,30.08,ENE,77,0.0,1.0,88,0.00,,SKC,0.48,VWS V14.01,2013-06-22 03:44:00,
2013-06-21 22:49:00,73.7,69.9,30.08,ENE,77,0.0,1.0,88,0.00,,SKC,0.48,VWS V14.01,2013-06-22 03:49:00,
2013-06-21 22:54:00,73.6,69.8,30.08,ENE,77,0.0,1.0,88,0.00,,SKC,0.48,VWS V14.01,2013-06-22 03:54:00,
2013-06-21 22:59:00,73.4,69.3,30.08,ENE,77,0.0,1.0,87,0.00,,SKC,0.48,VWS V14.01,2013-06-22 03:59:00,
2013-06-21 23:01:00,73.4,69.3,30.08,ENE,77,0.0,0.0,87,0.00,,SKC,0.48,VWS V14.01,2013-06-22 04:01:00,
2013-06-21 23:06:00,73.3,69.2,30.07,ENE,77,0.0,0.0,87,0.00,,SKC,0.48,VWS V14.01,2013-06-22 04:06:00,
2013-06-21 23:11:00,73.1,69.0,30.07,ENE,77,0.0,0.0,87,0.00,,SKC,0.48,VWS V14.01,2013-06-22 04:11:00,
2013-06-21 23:16:00,73.1,69.0,30.07,ENE,77,0.0,0.0,87,0.00,,SKC,0.48,VWS V14.01,2013-06-22 04:16:00,
2013-06-21 23:21:00,73.0,68.9,30.08,ENE,77,0.0,0.0,87,0.00,,SKC,0.48,VWS V14.01,2013-06-22 04:21:00,
2013-06-21 23:26:00,72.8,68.7,30.07,ENE,77,0.0,0.0,87,0.00,,SKC,0.48,VWS V14.01,2013-06-22 04:26:00,
2013-06-21 23:31:00,72.7,68.6,30.07,ENE,77,0.0,0.0,87,0.00,,SKC,0.48,VWS V14.01,2013-06-22 04:31:00,
2013-06-21 23:36:00,72.6,68.2,30.07,ENE,77,0.0,0.0,86,0.00,,SKC,0.48,VWS V14.01,2013-06-22 04:36:00,
2013-06-21 23:41:00,72.5,68.1,30.06,ENE,77,0.0,0.0,86,0.00,,SKC,0.48,VWS V14.01,2013-06-22 04:41:00,
2013-06-21 23:46:00,72.4,68.0,30.06,ENE,77,0.0,0.0,86,0.00,,SKC,0.48,VWS V14.01,2013-06-22 04:46:00,
2013-06-21 23:51:00,72.3,67.9,30.06,ENE,77,0.0,0.0,86,0.00,,SKC,0.48,VWS V14.01,2013-06-22 04:51:00,
2013-06-21 23:56:00,72.2,67.8,30.06,ENE,77,0.0,0.0,86,0.00,,SKC,0.48,VWS V14.01,2013-06-22 04:56:00,